Wind_Speed
34 36 38 34 35 38 42 43 43 43 43 44 42 40 40 40 40 38 39 37 37 37 36 35 33 33 33 34 35 35 36 36 39 38 38 39 36 37 33 31 32 29 31 36
32 34 28 29 34 37 41 39 35 37 40 43 41 40 41 41 40 41 40 39 39 40 41 40 38 37 37 37 37 37 35 35 37 39 40 44 41 40 36 34 32 30 31 36
27 28 28 32 33 30 31 33 34 35 34 35 38 38 37 40 40 41 42 42 42 43 44 44 43 42 42 41 40 39 40 40 38 39 42 46 45 44 39 35 33 35 36 35
27 28 27 28 27 25 27 28 26 26 27 30 35 40 32 37 39 41 40 44 43 44 45 46 46 45 45 45 46 46 44 44 42 41 41 45 48 45 42 40 38 36 36 35
23 24 24 23 23 23 22 21 20 23 25 26 27 36 34 31 32 36 40 43 46 46 47 49 50 52 53 54 53 52 50 48 47 44 41 42 48 50 44 43 40 38 39 38
24 23 21 20 20 19 17 18 19 20 22 25 25 30 35 31 35 40 45 48 51 54 56 57 58 59 61 62 62 61 57 55 53 50 44 44 42 48 49 48 44 42 42 40
19 18 19 19 18 16 16 17 19 21 23 24 28 30 29 35 41 44 48 50 52 55 57 57 55 55 57 59 59 61 64 61 58 57 52 48 44 42 50 53 49 45 46 43
20 20 20 18 16 17 16 17 20 22 24 28 31 33 34 37 43 45 46 44 45 47 49 52 53 53 52 51 53 55 56 61 63 61 59 54 49 43 48 54 51 47 47 46
20 20 18 17 17 16 15 18 21 25 28 30 32 34 36 38 37 37 42 47 50 52 50 50 52 53 54 54 56 55 56 57 64 64 61 57 50 49 50 49 50 49 48 48
20 18 18 17 16 17 19 20 22 24 29 32 34 34 31 31 33 38 42 46 48 50 50 53 51 49 49 53 54 61 56 57 56 63 62 57 54 54 51 48 47 49 48 47
20 18 16 17 19 18 17 19 22 25 28 32 31 28 26 30 34 38 42 45 49 50 51 50 48 45 44 40 45 54 56 55 53 56 59 57 55 53 51 47 46 48 47 45
19 17 17 17 16 17 18 21 23 23 27 26 29 22 21 26 31 35 37 39 46 45 45 46 41 40 35 31 40 49 54 52 44 44 55 51 47 49 49 47 46 46 43 43
16 16 16 16 16 17 19 21 23 26 25 23 27 24 26 34 35 40 45 47 44 46 48 44 35 32 32 40 44 49 49 41 35 41 49 49 45 47 47 47 44 43 42 42
16 15 15 16 16 17 16 20 24 23 25 19 18 24 25 32 37 43 48 43 32 39 44 39 34 28 29 37 41 38 40 28 36 39 42 43 41 42 44 43 39 39 40 41
13 15 16 17 16 14 16 19 19 19 19 20 18 23 26 32 37 39 42 35 25 37 31 32 24 20 28 28 25 27 27 28 33 35 30 36 38 40 40 37 34 36 39 37
14 14 11 15 12 13 13 12 14 14 13 15 18 20 24 27 31 35 38 41 27 16 10 13 11 13 11 11 14 18 17 18 24 29 28 32 34 35 34 31 33 34 33 33
13 10 10 13 11 9 10 10 5 6 9 15 15 22 22 21 29 30 32 26 24 18 8 5 5 9 9 7 9 11 16 21 21 25 29 31 29 27 27 30 31 27 34 32
10 9 13 8 7 10 7 5 4 7 11 12 19 24 22 20 26 25 25 27 20 7 2 4 9 12 11 12 16 19 22 24 24 25 25 24 24 23 20 29 32 30 35 29
11 11 8 6 9 9 7 4 4 7 9 13 17 20 22 22 22 24 24 22 22 19 16 15 17 17 18 18 15 15 19 19 19 19 17 14 17 19 23 26 27 33 37 26
11 9 8 8 9 8 6 4 6 8 8 10 13 14 17 27 23 24 18 16 16 18 16 17 16 13 12 13 14 15 17 17 17 10 15 20 22 19 27 26 29 24 27 29
10 8 10 7 8 6 3 3 5 6 10 11 11 14 18 19 16 20 21 17 11 11 9 9 10 12 13 13 14 16 18 16 14 19 14 9 13 21 30 27 33 26 36 27
10 10 10 8 6 5 2 2 7 10 12 13 11 12 14 13 11 14 16 14 12 12 9 6 8 10 11 15 14 14 21 16 11 9 8 17 16 14 28 29 21 24 27 29
12 11 12 10 9 8 3 5 8 11 13 13 14 13 11 13 11 9 9 11 13 12 9 11 9 8 9 5 3 14 12 11 18 14 13 11 12 15 16 17 21 25 28 29
11 13 13 13 13 12 9 11 11 10 11 12 11 12 10 9 11 10 10 9 9 11 10 10 10 10 10 12 13 13 10 7 8 10 9 10 12 15 19 21 24 27 29 32
14 15 18 17 16 14 17 16 15 13 11 11 10 10 7 6 7 8 8 8 8 8 7 8 8 7 7 7 6 5 3 2 4 7 9 12 16 19 22 24 27 28 30 32
15 21 20 17 15 16 18 19 19 17 13 11 8 8 9 6 5 6 6 4 5 4 5 5 5 4 4 4 4 3 3 4 7 10 13 16 19 21 23 25 28 30 32 32
Wind_Direction
224 229 232 233 233 234 235 236 239 242 243 242 246 248 245 242 239 241 243 241 243 247 248 245 244 245 247 248 251 253 254 261 257 251 258 265 264 266 268 271 274 273 267 271
224 228 229 231 232 234 237 238 240 243 246 243 245 243 246 245 242 244 246 245 244 245 248 247 246 241 239 240 243 249 254 257 262 257 247 254 261 264 266 266 270 271 267 266
224 226 220 224 229 230 236 238 239 241 248 253 250 245 246 246 246 247 248 249 246 245 246 249 250 247 244 244 245 247 251 252 255 260 255 251 252 259 265 265 263 267 267 272
222 225 222 222 226 228 234 241 245 251 252 255 257 249 248 247 250 251 250 251 251 249 250 250 250 252 253 252 253 255 253 255 257 257 258 257 256 254 261 264 264 265 270 272
218 222 220 217 218 222 228 234 238 239 245 250 254 259 243 244 252 258 258 253 253 254 257 259 259 257 258 260 262 261 260 257 256 256 254 257 256 255 255 259 261 263 265 269
205 207 212 207 209 213 217 222 234 240 246 251 252 260 257 263 260 258 260 262 263 262 262 261 261 260 260 260 260 257 257 258 257 257 253 252 254 252 255 256 258 258 263 266
198 192 195 198 202 205 215 229 243 250 256 263 264 264 265 273 272 270 271 274 274 272 269 267 265 263 261 258 257 256 259 252 250 253 253 252 250 247 247 252 255 258 260 262
189 192 195 202 206 215 223 241 253 262 266 265 267 270 270 272 277 280 278 279 279 279 277 273 270 269 268 265 262 258 252 249 247 245 251 248 248 248 246 248 251 256 259 261
195 191 203 213 217 226 238 250 260 266 273 277 277 279 279 285 291 295 296 289 283 278 275 274 273 272 270 269 268 261 256 253 245 242 241 243 243 244 245 247 247 251 255 258
203 202 210 220 230 238 248 260 270 278 282 285 281 286 294 305 291 286 283 283 284 286 287 283 279 281 280 284 275 265 253 247 250 239 239 237 236 239 241 244 246 250 254 257
206 212 213 225 237 251 262 270 276 282 288 289 295 297 325 304 300 292 290 291 290 287 285 280 282 285 283 274 263 247 235 233 240 243 234 234 234 237 239 242 245 248 252 256
210 219 226 239 250 260 270 274 282 285 289 299 303 326 312 295 293 297 299 297 296 289 280 275 278 277 273 268 263 242 234 228 229 238 233 229 232 235 236 237 243 247 252 255
219 229 240 248 256 264 267 276 280 283 297 314 304 316 315 317 315 311 307 302 295 289 277 272 274 277 273 266 264 247 235 229 220 226 228 223 226 229 230 235 241 248 253 257
224 234 244 249 259 272 280 278 285 290 294 296 309 326 325 321 322 324 317 313 306 305 276 270 278 262 251 259 265 246 233 226 219 219 224 219 224 228 229 233 240 247 252 256
225 235 247 261 268 274 270 279 288 296 302 324 343 333 330 338 336 333 332 324 320 307 291 275 265 250 245 256 258 215 241 229 220 212 211 213 221 225 227 231 240 248 255 259
229 247 258 271 265 276 282 290 299 305 318 322 341 343 339 343 342 346 341 337 325 305 295 271 245 226 237 220 233 246 252 206 196 205 204 210 220 224 226 231 240 247 258 264
241 250 253 243 260 262 279 280 295 334 351 354 356 1 348 353 357 356 354 347 339 338 321 206 179 186 190 193 204 197 183 177 185 193 199 209 217 221 225 235 243 242 253 258
244 249 226 243 257 256 269 254 299 346 356 2 354 352 356 0 358 6 9 1 21 24 301 204 171 174 175 180 178 174 175 184 185 190 201 205 209 218 227 239 247 242 268 254
247 217 220 233 249 246 236 266 322 321 328 340 342 355 6 0 348 4 9 17 18 34 60 89 107 118 129 137 147 168 180 174 179 186 192 201 223 219 236 241 255 266 257 252
209 201 205 232 238 243 260 307 331 343 334 338 348 17 30 20 26 9 5 13 35 39 63 89 99 105 110 124 138 147 148 157 155 159 177 201 225 221 228 230 246 251 258 280
201 195 208 222 237 245 281 315 325 330 344 355 359 353 347 2 357 10 13 4 34 61 70 93 95 96 109 120 129 136 145 159 193 206 197 223 252 233 231 252 271 283 271 287
208 199 216 213 229 258 256 14 1 352 351 1 9 8 355 355 354 13 18 33 41 54 60 85 102 108 118 130 146 142 149 150 189 203 227 225 251 260 259 256 273 280 282 290
211 215 222 226 234 238 250 341 344 344 346 358 3 10 357 353 338 354 15 33 44 26 356 63 96 90 108 130 125 185 140 165 201 218 236 251 258 284 288 287 282 286 291 298
215 222 225 235 240 250 273 295 311 320 323 335 348 355 6 355 352 344 349 354 4 20 36 53 68 76 84 87 106 128 165 192 202 228 253 277 287 286 285 292 298 301 302 302
222 222 224 233 242 255 271 284 293 296 301 305 318 339 356 16 19 5 359 1 359 358 14 29 42 55 70 78 91 102 119 237 274 279 283 280 284 294 299 299 300 303 307 309
222 227 226 235 247 256 266 282 289 288 286 284 296 320 323 312 331 346 347 13 8 33 29 7 356 7 9 11 4 345 310 277 271 281 290 295 297 297 301 308 311 312 310 308
Height
5672 5678 5683 5688 5692 5695 5700 5704 5710 5712 5715 5721 5726 5732 5736 5737 5739 5742 5744 5747 5749 5751 5752 5755 5757 5759 5760 5763 5763 5765 5766 5767 5770 5773 5774 5772 5773 5774 5777 5777 5779 5781 5784 5781
5668 5672 5680 5682 5685 5689 5694 5700 5705 5706 5708 5713 5718 5724 5726 5729 5733 5734 5736 5738 5740 5742 5742 5744 5746 5748 5750 5752 5754 5754 5756 5757 5759 5762 5766 5765 5765 5764 5768 5770 5772 5774 5774 5772
5663 5669 5672 5676 5679 5685 5689 5693 5696 5701 5703 5706 5711 5716 5720 5722 5724 5726 5728 5729 5731 5732 5733 5734 5735 5737 5739 5741 5743 5745 5746 5746 5748 5751 5753 5755 5756 5757 5760 5763 5765 5764 5764 5764
5658 5663 5668 5672 5676 5680 5684 5688 5692 5696 5699 5702 5704 5707 5715 5715 5716 5717 5718 5719 5720 5721 5722 5724 5725 5727 5729 5731 5732 5734 5736 5737 5738 5740 5742 5744 5746 5749 5751 5753 5754 5755 5755 5756
5657 5660 5664 5668 5672 5675 5680 5685 5688 5690 5693 5697 5700 5700 5709 5709 5709 5708 5707 5708 5708 5709 5712 5714 5715 5717 5718 5719 5721 5722 5723 5725 5726 5729 5733 5734 5736 5738 5743 5743 5745 5746 5746 5746
5651 5656 5661 5664 5668 5672 5677 5681 5684 5687 5689 5692 5695 5696 5699 5701 5701 5698 5695 5695 5695 5696 5697 5700 5701 5702 5703 5703 5704 5705 5708 5710 5713 5716 5721 5723 5727 5729 5731 5733 5734 5736 5736 5737
5650 5654 5658 5662 5666 5670 5674 5678 5680 5683 5685 5687 5688 5691 5696 5690 5686 5685 5682 5679 5679 5679 5681 5683 5683 5683 5683 5682 5683 5686 5690 5695 5697 5700 5708 5712 5716 5719 5721 5720 5723 5726 5727 5728
5648 5653 5656 5660 5665 5668 5671 5675 5676 5677 5679 5681 5681 5682 5684 5681 5675 5670 5667 5667 5666 5663 5664 5665 5664 5663 5662 5661 5665 5669 5670 5676 5679 5684 5693 5698 5704 5707 5707 5708 5713 5717 5718 5719
5646 5651 5654 5658 5662 5666 5669 5670 5672 5672 5672 5671 5672 5673 5672 5668 5665 5661 5656 5650 5647 5644 5648 5647 5644 5641 5639 5641 5644 5648 5653 5656 5660 5668 5676 5684 5692 5694 5695 5699 5702 5705 5707 5709
5644 5648 5652 5656 5659 5662 5664 5666 5667 5666 5664 5663 5662 5662 5661 5659 5653 5648 5642 5636 5631 5626 5625 5624 5623 5621 5617 5618 5620 5625 5631 5638 5643 5649 5661 5670 5677 5679 5683 5687 5691 5694 5696 5699
5642 5646 5651 5653 5655 5657 5659 5660 5660 5660 5660 5655 5654 5652 5652 5644 5639 5633 5629 5623 5617 5613 5608 5606 5603 5599 5596 5597 5599 5605 5610 5616 5626 5634 5645 5655 5662 5668 5672 5677 5681 5684 5687 5690
5640 5644 5646 5649 5652 5653 5654 5654 5655 5654 5654 5653 5647 5645 5643 5637 5631 5626 5619 5611 5603 5597 5591 5589 5588 5583 5582 5582 5586 5590 5595 5601 5612 5622 5631 5643 5652 5657 5662 5667 5672 5675 5679 5681
5638 5641 5643 5646 5649 5649 5650 5650 5649 5648 5647 5649 5639 5639 5630 5624 5618 5612 5604 5594 5586 5579 5575 5574 5572 5571 5573 5572 5575 5577 5586 5594 5601 5610 5620 5630 5639 5645 5651 5657 5663 5668 5671 5673
5636 5638 5640 5642 5644 5645 5646 5645 5644 5644 5643 5641 5636 5630 5627 5619 5611 5602 5590 5580 5570 5564 5561 5559 5560 5562 5562 5562 5564 5570 5580 5587 5591 5600 5609 5620 5630 5637 5643 5650 5655 5659 5662 5664
5634 5635 5637 5638 5640 5641 5641 5641 5639 5637 5635 5631 5631 5624 5620 5613 5604 5594 5580 5568 5558 5553 5549 5549 5552 5552 5553 5556 5559 5566 5574 5579 5584 5592 5602 5613 5622 5629 5635 5642 5647 5651 5654 5655
5631 5632 5634 5634 5635 5636 5636 5635 5634 5633 5631 5629 5625 5622 5614 5608 5602 5590 5576 5562 5552 5545 5543 5544 5545 5547 5550 5554 5559 5565 5569 5572 5580 5591 5599 5608 5617 5624 5630 5636 5640 5643 5646 5648
5628 5630 5630 5631 5633 5633 5634 5633 5632 5632 5629 5625 5623 5618 5612 5608 5599 5588 5577 5564 5553 5547 5543 5543 5544 5547 5549 5553 5557 5562 5567 5573 5580 5589 5597 5605 5614 5621 5626 5629 5633 5637 5639 5641
5624 5626 5628 5629 5629 5631 5630 5630 5630 5628 5626 5623 5619 5615 5609 5603 5597 5589 5579 5570 5560 5551 5547 5546 5547 5548 5550 5553 5557 5562 5567 5573 5580 5588 5597 5605 5611 5616 5620 5624 5626 5631 5633 5632
5622 5624 5624 5627 5627 5628 5628 5628 5628 5626 5624 5621 5618 5613 5607 5602 5596 5590 5584 5575 5569 5561 5555 5552 5550 5551 5554 5557 5562 5566 5571 5576 5583 5590 5597 5604 5609 5611 5615 5618 5622 5623 5625 5623
5620 5621 5624 5625 5625 5626 5626 5625 5624 5623 5622 5620 5617 5612 5607 5603 5597 5592 5586 5580 5574 5570 5565 5562 5560 5561 5561 5563 5567 5571 5575 5580 5585 5591 5598 5604 5609 5609 5610 5613 5618 5618 5617 5615
5617 5618 5621 5623 5622 5624 5623 5623 5622 5623 5623 5618 5615 5610 5606 5603 5599 5594 5589 5584 5579 5576 5573 5570 5569 5569 5569 5571 5574 5576 5580 5580 5587 5590 5597 5603 5607 5605 5609 5612 5613 5610 5608 5606
5614 5617 5619 5620 5621 5622 5621 5621 5621 5620 5617 5615 5613 5610 5606 5603 5599 5595 5591 5587 5584 5582 5579 5577 5576 5576 5576 5577 5580 5581 5581 5588 5592 5594 5597 5600 5603 5604 5605 5606 5604 5604 5603 5599
5612 5614 5616 5618 5619 5619 5620 5619 5618 5617 5614 5613 5611 5609 5606 5603 5601 5596 5593 5590 5588 5585 5582 5581 5581 5580 5581 5581 5581 5583 5586 5589 5594 5595 5598 5599 5600 5601 5601 5600 5599 5598 5595 5590
5607 5610 5612 5614 5616 5616 5616 5617 5616 5615 5613 5611 5610 5609 5606 5603 5601 5599 5595 5592 5589 5588 5587 5585 5584 5584 5584 5584 5585 5588 5590 5591 5593 5596 5598 5597 5597 5597 5597 5594 5592 5589 5586 5583
5603 5606 5608 5609 5611 5613 5612 5613 5612 5612 5611 5609 5608 5606 5605 5603 5601 5599 5597 5594 5592 5589 5587 5586 5586 5586 5586 5587 5588 5589 5589 5591 5592 5593 5594 5594 5594 5591 5589 5587 5585 5582 5577 5573
5597 5600 5604 5605 5608 5608 5608 5608 5607 5606 5606 5606 5605 5604 5604 5602 5601 5600 5598 5596 5594 5592 5590 5589 5587 5586 5586 5586 5587 5588 5589 5590 5591 5591 5590 5589 5588 5586 5583 5580 5576 5572 5569 5566